Overview Statistics Trail Chart Weather Telemetry Raw packets
 

This is the latest recevied weather packets stored in our database for station/object LU4EGV-13. If no packets are shown the sender has not sent any weather packets the latest 10 day(s).

<< 51 52 53 54 55 56 57 >>
Time Temp. Humidity Pressure Rain* Wind** Luminosity Snow
1787880956 11.11° C 90% 1005.6 hPa 0 mm - - -
1787880351 11.11° C 89% 1005.9 hPa 0 mm - - -
1787879744 11.11° C 89% 1005.5 hPa 0 mm - - -
1787879138 11.11° C 89% 1005.4 hPa 0 mm - - -
1787878531 11.11° C 89% 1005.1 hPa 0 mm - - -
1787877925 10.56° C 90% 1006.4 hPa 0 mm - - -
1787877332 11.11° C 88% 1006.2 hPa 0 mm - - -
1787876712 11.67° C 89% 1005.6 hPa 0 mm - - -
1787876106 11.67° C 89% 1005.6 hPa 0 mm - - -
1787875500 12.22° C 88% 1005.2 hPa 0 mm - - -
1787874894 12.22° C 88% 1005.5 hPa 0 mm - - -
1787874288 12.78° C 87% 1005.2 hPa 0 mm - - -
1787873681 12.78° C 87% 1005.5 hPa 0 mm - - -
1787873079 12.78° C 86% 1006 hPa 0 mm - - -
1787872469 12.78° C 86% 1006 hPa 0 mm - - -
1787871867 12.78° C 85% 1005.1 hPa 0 mm - - -
1787871258 12.78° C 86% 1004.5 hPa 0 mm - - -
1787870650 12.78° C 85% 1004.3 hPa 0 mm - - -
1787870045 12.78° C 85% 1004.6 hPa 0 mm - - -
1787869438 12.78° C 84% 1005 hPa 0 mm - - -
1787868833 13.33° C 84% 1004.5 hPa 0 mm - - -
1787868226 13.33° C 84% 1004.2 hPa 0 mm - - -
1787867619 13.89° C 83% 1004.1 hPa 0 mm - - -
1787867014 13.89° C 83% 1004.1 hPa 0 mm - - -
1787866407 13.89° C 81% 1004.5 hPa 0 mm - - -

* Rain latest hour (hover to see other rain measurements)
** Current wind speed in m/s (hover to see current wind gust speed)